Regional Weather Roundup
Issued by NWS

Home | Current Version | Previous Version | Text Only | Print | Product List | Glossary On
Versions: 1 2 3 4 5 6 7 8 9 10 11 12 13 14 15 16 17 18 19 20 21 22 23 24 25 26 27 28 29 30 31 32 33 34 35 36 37 38 39 40 41 42 43 44 45 46 47 48 49 50
000
ASUS46 KLOX 291413
RWRCA

SOUTHERN CALIFORNIA WEATHER ROUNDUP
NATIONAL WEATHER SERVICE OXNARD CALIFORNIA
700 AM PDT FRI MAY 29 2015

NOTE: "FAIR" INDICATES FEW OR NO CLOUDS BELOW 12,000 FEET WITH NO
SIGNIFICANT WEATHER AND/OR OBSTRUCTIONS TO VISIBILITY.

  -  STATIONS PRECEEDED BY AN ASTERISK (*) ARE NOT NWS OR FAA
     STATIONS AND ARE NOT SUBJECT TO NWS AND FAA QUALITY CONTROL.

CAZ041-042-087-291500-
LA AND ORANGE COUNTY COASTAL AREAS


CITY           SKY/WX    TMP DP  RH WIND       PRES   REMARKS
L.A. DOWNTOWN  CLOUDY    60  55  83 CALM      29.96R HAZE
L.A. AIRPORT   CLOUDY    59  56  89 VRB5      29.96R FOG
LONG BEACH     CLOUDY    60  56  86 SW5       29.96R

CITY           SKY/WX    TMP DP  RH WIND       PRES   REMARKS
AVALON           N/A     59 N/A N/A MISG        N/A
FULLERTON      CLOUDY    62  55  77 SE3       29.95R
*GETTY CENTER    N/A     52  52 100 W2          N/A
HAWTHORNE      CLOUDY    61  55  81 CALM      29.96R HAZE
*LOS ALAMITOS  CLOUDY    61  57  89 VRB1      29.96R FOG
*REDONDO BEACH   N/A     60  56  87 CALM      29.96R
SANTA ANA      CLOUDY    62  55  77 CALM      29.95S
STA MONICA APT CLOUDY    60  55  83 E3        29.96R
TORRANCE       CLOUDY    61  59  94 CALM      29.97
*UCLA            N/A     59  54  82 SE5       29.94R

$$

CAZ547-548-048-291500-
LA COUNTY VALLEYS AND INLAND EMPIRE


CITY           SKY/WX    TMP DP  RH WIND       PRES   REMARKS
BURBANK        CLOUDY    58  54  86 S5        29.95R FOG
VAN NUYS       FOG       57  55  93 S5        29.95S VSB 1

CITY           SKY/WX    TMP DP  RH WIND       PRES   REMARKS
CORONA AIRPORT CLOUDY    57  55  94 CALM      29.97R FOG
*CHATSWORTH      N/A     57  53  85 E1        29.94S
CHINO          CLOUDY    59  56  89 CALM      29.97R FOG
MARCH AFB      SUNNY     58  56  94 NW2       29.95S
*NORTHRIDGE      N/A     55  52  88 E2          N/A
ONTARIO        CLOUDY    58  55  90 CALM      29.96R FOG
*PASADENA        N/A     59  57  94 CALM        N/A
POMONA         CLOUDY    57  55  94 CALM      29.99  FOG
RIVERSIDE      CLOUDY    57  55  93 W5        29.96R FOG
SAN BERNARDINO NOT AVBL
*WHITEMAN AP   NOT AVBL
*WOODLAND HILL   N/A     55  54  94 NE2         N/A

$$

CAZ054-055-291500-
LA AND SAN BERNARDINO COUNTY MOUNTAINS


CITY           SKY/WX    TMP DP  RH WIND       PRES   REMARKS
*BIG BEAR AIRP SUNNY     43  32  65 CALM      30.23R
SANDBERG       SUNNY     65  38  36 N16       30.07R

$$

CAZ028-029-059-060-099-291500-
ANTELOPE VALLEY AND SURROUNDING AREAS


CITY           SKY/WX    TMP DP  RH WIND       PRES   REMARKS
LANCASTER      SUNNY     65  38  36 NE3       29.96R
PALMDALE       SUNNY     63  35  35 E5        29.98R

CITY           SKY/WX    TMP DP  RH WIND       PRES   REMARKS
29 PALMS       SUNNY     69  28  21 NW6       30.01R
BARSTOW/DAGGET SUNNY     70  31  23 W13       29.94R
BISHOP         SUNNY     62  37  39 CALM      30.06R
CHINA LAKE     SUNNY     64  31  28 S3        29.94R
EDWARDS AFB    SUNNY     61  31  31 CALM      29.95R
MOJAVE         FAIR      72  37  28 CALM      29.98R
NEEDLES        SUNNY     81  24  12 CALM      29.89R
VICTORVILLE    SUNNY     64  30  27 CALM      30.00R

$$

CAZ039-040-291500-
VENTURA AND SANTA BARBARA COUNTY COAST


CITY           SKY/WX    TMP DP  RH WIND       PRES   REMARKS
CAMARILLO      CLOUDY    59  54  83 SE5       29.95R HAZE
NWS OXNARD       N/A     58  55  88 CALM      29.95R
OXNARD AIRPORT CLOUDY    60  55  83 SE3       29.95R
*POINT MUGU    CLOUDY    61  55  81 NE6       29.96R FOG
SBA APT/GOLETA CLOUDY    58  55  90 E3        29.95R
*SANTA BARBARA   N/A     58  53  84 CALM      30.03S
*VENTURA         N/A     58  55  88 W5        29.56S

$$

CAZ044-045-291500-
VENTURA COUNTY VALLEYS


CITY           SKY/WX    TMP DP  RH WIND       PRES   REMARKS
*SIMI VALLEY     N/A     53  51  92 CALM      29.91S
*OJAI            N/A     51  49  92 CALM      29.91R
*FILLMORE        N/A     52  48  87 CALM      29.86S

$$

CAZ053-291500-
VENTURA COUNTY MOUNTAINS


CITY           SKY/WX    TMP DP  RH WIND       PRES   REMARKS

$$

CAZ034-035-036-291500-
CENTRAL COAST AND SANTA YNEZ VALLEY


CITY           SKY/WX    TMP DP  RH WIND       PRES   REMARKS
SAN LUIS OBISP CLOUDY    52  51  97 CALM      29.97S FOG
SANTA MARIA    CLOUDY    54  53  97 CALM      29.97S FOG

CITY           SKY/WX    TMP DP  RH WIND       PRES   REMARKS
*CAL POLY SLO    N/A     52  52 100 SW5         N/A
*LOMPOC        CLOUDY    52  48  87 W5        29.98S
*PISMO BEACH     N/A     53  51  93 CALM      29.98S
*SANTA YNEZ    CLOUDY    52  50  93 SE3       29.97S FOG

$$

CAZ037-038-051-291500-
SAN LUIS OBISPO COUNTY INTERIOR AND CUYAMA VALLEY


CITY           SKY/WX    TMP DP  RH WIND       PRES   REMARKS
*CUYAMA          N/A     57  39  51 E3        29.90S
PASO ROBLES    CLOUDY    52  50  93 N3        29.99R

$$

CAZ032-033-061-291500-
SOUTHERN DESERTS


CITY           SKY/WX    TMP DP  RH WIND       PRES   REMARKS
BLYTHE         SUNNY     73  34  23 N5        29.87R
IMPERIAL       SUNNY     71  51  49 SE8       29.84R
PALM SPRINGS   SUNNY     75  54  47 CALM      29.88R
THERMAL        SUNNY     70  55  59 CALM      29.84R

$$

ELSEWHERE ACROSS THE WESTERN UNITED STATES AND MEXICO


CITY           SKY/WX    TMP DP  RH WIND       PRES   REMARKS
DENVER, CO     MOSUNNY   54  48  80 SW5       30.19S
GRAND CANYON,  SUNNY     53  41  63 CALM      30.25R
HONOLULU, HI   CLEAR     70  64  83 N3        29.96F
KAHULUI, MAUI  CLOUDY    72  70  94 CALM      29.97F
LAKE TAHOE, CA SUNNY     43  37  79 S3        30.19S
LAS VEGAS, NV  SUNNY     80  32  17 S3        29.93R
MAMMOTH LAKES, FAIR      45  32  61 N3        30.25R
MEXICO CITY, M CLOUDY    59  54  82 E5        30.34
PHOENIX, AZ    MOSUNNY   76  40  27 SE8       29.91R
PORTLAND, OR   MOSUNNY   58  53  84 NW3       30.00R
RENO, NV       MOSUNNY   60  42  51 CALM      30.11R
SALT LAKE CITY SUNNY     57  45  64 SE8       30.19R
SAN DIEGO, CA  CLOUDY    61  55  81 CALM      29.96S
SAN FRANCISCO, CLOUDY    54  50  86 W8        30.00R
SAN JOSE, CA   CLOUDY    56  50  80 CALM      29.99R
SEATTLE, WA    MOSUNNY   58  54  86 S6        30.00F
TIJUANA, MEX   CLOUDY    57  54  88 N6        29.98R FOG

$$

STATION/POSITION TIME  TEMP    WIND        PRES    VSBY  WAVE
                       AIR SEA DIR/SP/G                  HT/PER
                 (UTC) (F)     (DEG/KT/KT) (MB)    (MI)  (FT/S)
POINT ARGUELLO B NOT AVBL
WEST SANTA BARBA 1350   52 55  330/ 19/ 21 1013.8R         6/ 7
POINT CONCEPTION NOT AVBL
EAST SANTA BARBA 1400   57 59  170/  4/  6 1014.8R
SANTA MONICA BAY 1350   59 63   50/  4/  6 1014.3R         3/16



USA.gov is the U.S. government's official web portal to all federal, state and local government web resources and services.